Regional Weather Roundup
Issued by NWS Albany, NY

Home | Current Version | Previous Version | Graphics & Text | Print | Product List | Glossary On
Versions: 1 2 3 4 5 6 7 8 9 10 11 12 13 14 15 16 17 18 19 20 21 22 23 24 25 26 27
000
ASUS41 KALY 280610
RWRALY

NEW YORK STATE HOURLY WEATHER ROUNDUP
NATIONAL WEATHER SERVICE ALBANY NY
200 AM EDT TUE MAR 28 2017

NOTE: "FAIR" INDICATES FEW OR NO CLOUDS BELOW 12,000 FEET WITH NO
SIGNIFICANT WEATHER AND/OR NO OBSTRUCTIONS TO VISIBILITY.

NYZ032-033-038>043-046>054-057>066-NYZ062>081-082-084-280700-
EAST


CITY           SKY/WX    TMP DP  RH WIND       PRES   REMARKS
ALBANY         CLOUDY    44  40  85 CALM      29.98S
GLENS FALLS    FOG       36  35  96 CALM      29.97F VSB 1
POUGHKEEPSIE   CLOUDY    39  38  96 CALM      29.97S FOG
NEWBURGH       CLOUDY    41  41 100 CALM      29.98F
MONTGOMERY     CLOUDY    40  38  93 CALM      29.95F FOG
WHITE PLAINS   FOG       40  39  97 E3        29.97F VSB 1/2
ISLIP          FOG       43  43 100 NE6       29.98F VSB 1
NEW YORK CITY  CLOUDY    43  40  89 E7        29.97F FOG
CENTRAL PARK   CLOUDY    45  44  97 VRB5      30.00S FOG
$$

NYZ005>009-017-018-044>046-055-056-280700-
CENTRAL


CITY           SKY/WX    TMP DP  RH WIND       PRES   REMARKS
FULTON         CLOUDY    41  38  89 E5        29.91F
SYRACUSE       CLOUDY    40  38  93 E6        29.92S
ROME           CLOUDY    39  38  96 SE7       29.95S WCI  34
ELMIRA         CLOUDY    47  45  93 CALM      29.90F FOG
BINGHAMTON     CLOUDY    46  44  93 SE5       29.91F
MONTICELLO     CLOUDY    41  39  93 NE5       29.95F
$$

NYZ026>034-041>043-087-280700-
NORTH


CITY           SKY/WX    TMP DP  RH WIND       PRES   REMARKS
WATERTOWN      CLOUDY    49  47  93 SW3       29.89F
FORT DRUM      NOT AVBL
MASSENA        FOG       36  36 100 CALM      29.90F VSB 1/4
PLATTSBURGH    CLOUDY    37  36  96 CALM      29.92F
$$

NYZ001>004-010>016-019>021-085-280700-
WEST


CITY           SKY/WX    TMP DP  RH WIND       PRES   REMARKS
NIAGARA FALLS  CLOUDY    49  45  86 SW5       29.89F
BUFFALO        CLOUDY    48  45  89 W3        29.90S
DUNKIRK        CLOUDY    47  44  90 S3        29.89F
JAMESTOWN      CLOUDY    46  43  87 CALM      29.89F
WELLSVILLE     FOG       47  45  93 CALM      29.91F VSB<1/4
ROCHESTER      MOCLDY    51  46  83 SW5       29.90S
PENN YAN       CLOUDY    50  46  86 SW5       29.91F
$$

             KEY
       WCI = WIND CHILL INDEX
       VSB = VISIBILITY
       HX  = HEAT INDEX
$$




USA.gov is the U.S. government's official web portal to all federal, state and local government web resources and services.